Вернуться в каталог

STARLINK-30872

АктивенСвязьVLEO
NORAD 58225·PAYLOAD·🇺🇸 United States

Запущен Nov 3, 2023 с Cape Canaveral Space Force Station

Loading…

Ближайшие Пролёты (ближайшие 24 часа)

TLE

СвежийSource: CelesTrak SupGP

Эпоха: Sep 15, 2026, 03:29 UTC

1 58225C 23170V   26258.14562500 -.00079605  00000+0 -28832-2 0  2582
2 58225  43.0005  62.3628 0001752 264.8682  74.8379 15.27618421    10

Отслеживайте STARLINK-30872 в реальном времени с AllMySat

Download on the App Store